Home > Weather > Cruzeiro do Sul > Past weeks

Flag for Brazil Past Weather in Cruzeiro do Sul, Acre, Brazil — Yesterday and Last 2 Weeks

Now
91 °F

Scattered clouds.


Feels Like: 94 °F
Forecast: N/A
Wind: 2 mph from Northeast

Location: Cruzeiro Do Sul Airport

Current Time: Aug 25, 2016 at 5:10:39 PM

Latest Report: Aug 25, 2016 at 4:00 PM


Visibility: N/A

Pressure: 29.83 "Hg

Humidity: 44%

Dew Point: 66 °F

Location of Cruzeiro do SulLocation

Past Weather in Cruzeiro do Sul — Graph

°F

Cruzeiro do Sul Temperature Yesterday

Maximum temperature yesterday: 91 °F (at 2:00 PM)
Minimum temperature yesterday: 68 °F (at 12:00 AM)
Average temperature yesterday: 80 °F

High & Low Weather Summary for the Past Weeks

 TemperatureHumidityPressure
High97 °F (Aug 15, 3:00 PM)100% (Aug 12, 1:00 AM)30.21 "Hg (Aug 12, 1:00 AM)
Low63 °F (Aug 23, 12:00 AM)37% (Aug 15, 3:00 PM)29.77 "Hg (Aug 14, 4:00 PM)
Average80 °F74%29.92 "Hg
* Reported Aug 10 4:00 PM — Aug 25 4:00 PM, Cruzeiro do Sul, Weather by CustomWeather, © 2016

Note: Actual official high and low records may vary slightly from our data, if they occured in-between our weather recording intervals... More about our weather records

Advertising

Cruzeiro do Sul Weather History for the Previous 24 Hours

Scroll right to see more
 ConditionsComfort  
Time TempWeatherWind HumidityBarometerVisibility
4:00 PM
Thu, Aug 25
91 °FScattered clouds.2 mph44%29.83 "HgN/A
3:00 PM91 °FScattered clouds.No wind44%29.86 "HgN/A
2:00 PM90 °FScattered clouds.2 mph46%29.89 "HgN/A
1:00 PM91 °FScattered clouds.6 mph49%29.89 "HgN/A
12:00 PM90 °FScattered clouds.2 mph52%29.92 "HgN/A
11:00 AM90 °FScattered clouds.2 mph49%29.95 "HgN/A
10:00 AM88 °FPassing clouds.2 mph55%29.98 "Hg5 mi
9:00 AM82 °FClear.1 mph66%29.98 "Hg4 mi
1:45 AM70 °FClear.No wind100%29.89 "Hg10 mi
11:00 PM
Wed, Aug 24
73 °FClear.No wind89%29.92 "Hg10 mi
10:00 PM73 °FClear.No wind89%29.92 "Hg10 mi
9:00 PM73 °FClear.No wind94%29.89 "Hg10 mi
8:00 PM75 °FClear.No wind89%29.89 "Hg10 mi
7:00 PM77 °FClear.No wind83%29.86 "Hg10 mi
6:00 PM82 °FClear.No wind70%29.86 "Hg10 mi
5:00 PM88 °FClear.3 mph52%29.83 "Hg4 mi
Weather by CustomWeather, © 2016

See weather overviewHow to use our weather pages